Anchialos, Greece

4:33 PM EEST on August 28, 2016 (GMT +0300)
Almiros Air Base

Weather History for LGBL - November, 2013

Change the Weather History Date:

Monday, November 25, 2013

  Actual Average Record
Temperature  
Mean Temperature 53 °F -  
Max Temperature 64 °F - - ()
Min Temperature 42 °F - - ()
Degree Days  
Heating Degree Days 12    
Growing Degree Days 3 (Base 50)    
Moisture  
Dew Point 41 °F    
Average Humidity 61    
Maximum Humidity 87    
Minimum Humidity 39    
Precipitation  
Precipitation 0.00 in - - ()
Sea Level Pressure  
Sea Level Pressure 29.69 in    
Wind  
Wind Speed 4 mph ()    
Max Wind Speed 7 mph    
Max Gust Speed -    
Visibility 6.2 miles    
Events      
T = Trace of Precipitation, MM = Missing Value Source: Averaged Metar Reports

Daily Weather History Graph

Daily Weather History Graph

Search for Another Location

Airport or City:

Trip Planner

Search our weather history database for the weather conditions in past years. The results will help you decide how hot, cold, wet, or windy it might be!

Date:

Astronomy

Nov. 25, 2013 Rise Set
Actual Time 7:23 AM EET 5:08 PM EET
Civil Twilight 6:53 AM EET 5:37 PM EET
Nautical Twilight 6:20 AM EET 6:10 PM EET
Astronomical Twilight 5:48 AM EET 6:42 PM EET
Moon No Moon Rise 12:32 PM EET (11/25)
Length of Visible Light 10h 43m
Length of Day
9h 45m
Waning Gibbous, 54% of the Moon is Illuminated
Nov 25
Waning Gibbous
Nov 25
Last Quarter
Dec 3
New
Dec 9
First Quarter
Dec 17
Full

Hourly Weather History & Observations

Time (EET) Temp. Windchill Dew Point Humidity Pressure Visibility Wind Dir Wind Speed Gust Speed Precip Events Conditions
12:50 AM 48.2 °F - 41.0 °F 76% 29.71 in 6.2 mi West 4.6 mph - N/A   Scattered Clouds
1:50 AM 48.2 °F - 41.0 °F 76% 29.71 in 6.2 mi West 4.6 mph - N/A   Partly Cloudy
2:50 AM 48.2 °F - 39.2 °F 71% 29.71 in 6.2 mi WNW 4.6 mph - N/A   Partly Cloudy
3:50 AM 46.4 °F 43.5 °F 39.2 °F 76% 29.68 in 6.2 mi WSW 5.8 mph - N/A   Partly Cloudy
4:50 AM 46.4 °F 43.5 °F 39.2 °F 76% 29.68 in 6.2 mi SW 5.8 mph - N/A   Partly Cloudy
5:50 AM 46.4 °F 44.3 °F 39.2 °F 76% 29.68 in 6.2 mi NW 4.6 mph - N/A   Partly Cloudy
6:20 AM 44.6 °F 40.7 °F 39.2 °F 81% 29.68 in 6.2 mi WNW 6.9 mph - N/A   Partly Cloudy
6:50 AM 42.8 °F 39.3 °F 39.2 °F 87% 29.68 in 6.2 mi East 5.8 mph - N/A   Partly Cloudy
7:20 AM 44.6 °F 41.4 °F 39.2 °F 81% 29.71 in 6.2 mi SW 5.8 mph - N/A   Scattered Clouds
7:50 AM 48.2 °F - 39.2 °F 71% 29.71 in 6.2 mi WSW 4.6 mph - N/A   Scattered Clouds
8:20 AM 50.0 °F - 41.0 °F 71% 29.71 in 6.2 mi West 4.6 mph - N/A   Scattered Clouds
8:50 AM 51.8 °F - 41.0 °F 67% 29.71 in 6.2 mi Variable 3.5 mph - N/A   Scattered Clouds
9:20 AM 50.0 °F - 42.8 °F 76% 29.71 in 6.2 mi Variable 3.5 mph - N/A   Scattered Clouds
9:50 AM 55.4 °F - 42.8 °F 63% 29.71 in 6.2 mi SW 5.8 mph - N/A   Scattered Clouds
10:20 AM 57.2 °F - 46.4 °F 67% 29.71 in 6.2 mi SSW 5.8 mph - N/A   Scattered Clouds
10:50 AM 62.6 °F - 44.6 °F 52% 29.71 in 6.2 mi SSW 5.8 mph - N/A   Scattered Clouds
11:20 AM 62.6 °F - 41.0 °F 45% 29.71 in 6.2 mi SE 4.6 mph - N/A   Scattered Clouds
11:50 AM 64.4 °F - 41.0 °F 42% 29.71 in 6.2 mi ESE 6.9 mph - N/A   Partly Cloudy
12:20 PM 62.6 °F - 37.4 °F 39% 29.68 in 6.2 mi ESE 6.9 mph - N/A   Scattered Clouds
12:50 PM 64.4 °F - 39.2 °F 40% 29.68 in 6.2 mi East 5.8 mph - N/A   Scattered Clouds
1:20 PM 64.4 °F - 41.0 °F 42% 29.68 in 6.2 mi East 6.9 mph - N/A   Scattered Clouds
1:50 PM 62.6 °F - 42.8 °F 48% 29.68 in 6.2 mi East 6.9 mph - N/A   Scattered Clouds
2:20 PM 62.6 °F - 42.8 °F 48% 29.68 in 6.2 mi ESE 6.9 mph - N/A   Mostly Cloudy
2:50 PM 64.4 °F - 42.8 °F 45% 29.68 in 6.2 mi East 6.9 mph - N/A   Mostly Cloudy
3:20 PM 62.6 °F - 42.8 °F 48% 29.68 in 6.2 mi East 4.6 mph - N/A   Mostly Cloudy
3:50 PM 64.4 °F - 42.8 °F 45% 29.68 in 6.2 mi Calm Calm - N/A   Mostly Cloudy
4:20 PM 60.8 °F - 41.0 °F 48% 29.68 in 6.2 mi NW 6.9 mph - N/A   Mostly Cloudy
4:50 PM 60.8 °F - 41.0 °F 48% 29.68 in 6.2 mi NW 5.8 mph - N/A   Mostly Cloudy
5:20 PM 59.0 °F - 42.8 °F 55% 29.68 in 6.2 mi NW 4.6 mph - N/A   Mostly Cloudy
5:50 PM 57.2 °F - 42.8 °F 59% 29.68 in 6.2 mi NW 4.6 mph - N/A   Mostly Cloudy
6:20 PM 57.2 °F - 41.0 °F 55% 29.68 in 6.2 mi Variable 3.5 mph - N/A   Mostly Cloudy
6:50 PM 57.2 °F - 41.0 °F 55% 29.68 in 6.2 mi Variable 3.5 mph - N/A   Mostly Cloudy
7:20 PM 55.4 °F - 42.8 °F 63% 29.68 in 6.2 mi Variable 3.5 mph - N/A   Mostly Cloudy
7:50 PM 53.6 °F - 42.8 °F 67% 29.71 in 6.2 mi Calm Calm - N/A   Mostly Cloudy
8:50 PM 53.6 °F - 42.8 °F 67% 29.71 in 6.2 mi Calm Calm - N/A   Mostly Cloudy
9:50 PM 53.6 °F - 42.8 °F 67% 29.71 in 6.2 mi Variable 3.5 mph - N/A   Mostly Cloudy
10:50 PM 53.6 °F - 41.0 °F 62% 29.71 in 6.2 mi West 3.5 mph - N/A   Mostly Cloudy
11:50 PM 53.6 °F - 42.8 °F 67% 29.71 in 6.2 mi Variable 3.5 mph - N/A   Mostly Cloudy